CZ-4B DEB, 37571

Orbit data source: Space-Track

CZ-4B DEB, 37571 is space debris in SSO originally from a launch on Tue, 27 May 2008 UTC launched from the Taiyaun Space Center, China (TSC). Debris objects in space refer to the collection of defunct objects orbiting the Earth. Examples of debris include non-operational satellites, rocket bodies, and fragments generated from explosions, collisions, or faulty payload assembly.

Loading next visibility...
Identifier
37571, 2008-026C
Orbit
SSO
Country
Flag of CNCN / PRC
Related business
Manufacturer
Unknown
Mission
Spacecraft
Bus & Motor
Unknown
Mass
Unknown
Launch date (UTC)
2008-05-27 (18 years ago)
Launch vehicle
Unknown
Launch site
Taiyaun Space Center, China (TSC)
Object type
Payload
Rocket body
Debris
Shape & HBR
Unknown shape, 0.1 m
Radar Cross Section
Small (<0.1 m²)

Expand to show TLE details & history
Last TLE update: 5 days ago

TLE from 5 days ago
0 CZ-4B DEB
1 37571U 08026C   26168.39768097  .00000334  00000-0  30654-3 0  9992
2 37571  98.8451 220.8228 0241134 285.6703  71.7966 13.77190628702571
Epoch: 2026-06-17T09:32Z
TLE epoch observation values (Epoch: 2026-06-17T09:32:39.635Z)
Latitude
-0.00004°
Longitude
172.00172°
Altitude
925.231 km
Speed
7.415 km/s
True Right ascension
14h 43m 17s
True Declination
0° 00' 00"
Sunlit
Object was in full shadow at epoch
Visualization orbit readout
Latitude
Unknown
Longitude
Unknown
Altitude
Unknown
Speed
Unknown
Apparent Right ascension
Unknown
Apparent Declination
Unknown
Sunlit
N/A
Visualization observer readout
Local Sidereal Time
23:08:02
Azimuth
Unknown
Elevation
Unknown
Doppler factor
Unknown
Orbital elements
Apogee altitude
1,148.303 km
Perigee altitude
793.873 km
Semi-major axis
7,349.225 km
Eccentricity
0.02411
Inclination
98.8451°
RAAN
220.8228°
Arg. of periapsis
285.6703°
True anomaly
74.4455°
Mean anomaly
71.7966°
Eccentric anomaly
73.11866°
Mean motion
3.44493 °/min
Orbital period
104.5 mins
BSTAR
0.00030654
Loading maneuver chart data...
Computing Atmospheric mass density...
Loading historical data...
Loading historical data...
Loading historical data...
Loading historical data...
Loading historical data...
Loading historical data...
Loading historical data...

Documentation

Showing up to 5 results
|